Location: Kielce
(50.8833°N, 20.6167°E)
Time: 22:08:35
(UTC+02:00)

SR - Pass Details

Date: 23 April 2021
Orbit: 573 x 882 km, 66.7° (Epoch: 09 May)

Event Time Altitude Azimuth Distance (km) Brightness Sun altitude
Rises 06:07:02 0° 167° (SSE) 3,323 ? 5.3°
Reaches altitude 10° 06:10:02 10° 150° (SSE) 2,442 ? 5.7°
Maximum altitude 06:14:00 20° 106° (ESE) 1,894 ? 6.3°
Drops below altitude 10° 06:18:06 10° 62° (ENE) 2,534 ? 7.0°
Sets 06:21:16 0° 46° (NE) 3,490 ? 7.5°
